Weather in Sizim

Russia / Tyva Republic     51°19′03″N   95°56′37″E
temp.,
°C
wind,
m/s
gust,
m/s
humid.,
%
clouds,
%
prec.,
mm/h
press.,
hPa
HPBL,
m
17 september, fri
fri1701:00+5se1170100 0.0 101510
04:00+4e2171100 0.0 101514
07:00+5e2267100 0.0 101552
10:00+14ene124098 0.0 1012412
13:00+20ene122493 0.0 10091127
16:00+20ne132129 0.0 10072235
19:00+11ese11425 0.0 100910
22:00+8se11540 0.0 101111
18 september, sat
sat1801:00+6ese22635 0.0 101214
04:00+4ese226737 0.0 101320
07:00+4ese22685 0.0 101342
10:00+15ene223826 0.0 1009470
13:00+22nne24256 0.0 10061361
16:00+22nnw242224 0.0 10052811
19:00+14sse114371 0.0 100711
22:00+10se115217 0.0 101011
19 september, sun
sun1901:00+7se11615 0.0 101110
04:00+6se21678 0.0 101312
07:00+6e21705 0.0 101424
10:00+16ene12365 0.0 1010455
13:00+22ne24225 0.0 10071842
16:00+23w361645 0.0 10043415
19:00+14sse223616 0.0 100614
22:00+10ese22494 0.0 100621
20 september, mon
mon2001:00+7e22595 0.0 100529
04:00+6e22655 0.0 100529
07:00+6e22645 0.0 100549
10:00+21ssw17270 0.0 9981150
13:00+15wnw101546100 0.0 10021224
16:00+13wsw4551100 0.0 10071293
19:00+7ene2367100 0.0 1011235
22:00+5e1171100 0.0 101227
21 september, tue
tue2101:00+4ne117271 0.0 101218
04:00+3n1172100 0.0 101246
07:00+2nw1175100 0.1 101443
10:00+5nnw2266100 0.3 1014810
13:00+4nw1294100 0.9 1015433
16:00+3w1298100 1.8 1016357
19:00+1w2299100 6.0 1020174
22:000wsw1197100 0.1 102318